• In United Kingdom
  • List of Countries
  • For 7 days
  • Water Temperature
  • Satellite Maps
  • Weather Map
  • Weather Widgets
  • user-avatar
    Login

    Hourly Weather Seli

    Today, 21 November, Tuesday

    Time Temperature Precipitation Wind Pressure Humidity
    00:00 +13°C° 0 mm 8 mps 750 mmHg 61%
    01:00 +12°C° 0 mm 8 mps 750 mmHg 57%
    02:00 +12°C° 0 mm 8 mps 751 mmHg 54%
    03:00 +12°C° 0 mm 7 mps 751 mmHg 54%
    04:00 +11°C° 0 mm 7 mps 751 mmHg 53%
    05:00 +11°C° 0 mm 6 mps 751 mmHg 53%
    06:00 +11°C° 0 mm 6 mps 752 mmHg 52%
    07:00 +11°C° 0 mm 6 mps 752 mmHg 52%
    08:00 +12°C° 0 mm 5 mps 752 mmHg 52%
    09:00 +13°C° 0 mm 5 mps 753 mmHg 49%
    10:00 +14°C° 0 mm 4 mps 753 mmHg 45%
    11:00 +15°C° 0 mm 4 mps 753 mmHg 42%
    12:00 +15°C° 0 mm 4 mps 753 mmHg 41%
    13:00 +16°C° 0 mm 3 mps 753 mmHg 40%
    14:00 +17°C° 0 mm 3 mps 753 mmHg 39%
    15:00 +16°C° 0 mm 2 mps 753 mmHg 41%
    16:00 +16°C° 0 mm 2 mps 753 mmHg 43%
    17:00 +15°C° 0 mm 2 mps 753 mmHg 45%
    18:00 +14°C° 0 mm 2 mps 753 mmHg 47%
    19:00 +14°C° 0 mm 1 mps 753 mmHg 49%
    20:00 +14°C° 0 mm 1 mps 753 mmHg 51%
    21:00 +13°C° 0 mm 1 mps 753 mmHg 52%
    22:00 +13°C° 0 mm 1 mps 754 mmHg 53%
    23:00 +13°C° 0 mm 1 mps 754 mmHg 54%

    Tomorrow, 22 November, Wednesday

    Time Temperature Precipitation Wind Pressure Humidity
    00:00 +13°C° 0 mm 1 mps 754 mmHg 55%
    01:00 +13°C° 0 mm 2 mps 754 mmHg 56%
    02:00 +12°C° 0 mm 2 mps 753 mmHg 57%
    03:00 +12°C° 0 mm 2 mps 753 mmHg 57%
    04:00 +12°C° 0 mm 2 mps 753 mmHg 56%
    05:00 +12°C° 0 mm 2 mps 753 mmHg 56%
    06:00 +12°C° 0 mm 3 mps 753 mmHg 54%
    07:00 +12°C° 0 mm 3 mps 753 mmHg 52%
    08:00 +12°C° 0 mm 3 mps 753 mmHg 50%
    09:00 +14°C° 0 mm 3 mps 753 mmHg 44%
    10:00 +16°C° 0 mm 3 mps 754 mmHg 38%
    11:00 +18°C° 0 mm 3 mps 754 mmHg 32%
    12:00 +18°C° 0.2 mm 3 mps 753 mmHg 33%
    13:00 +19°C° 0.2 mm 3 mps 753 mmHg 34%
    14:00 +19°C° 0.2 mm 4 mps 753 mmHg 34%
    15:00 +19°C° 0.2 mm 4 mps 753 mmHg 40%
    16:00 +18°C° 0.2 mm 4 mps 753 mmHg 45%
    17:00 +18°C° 0.2 mm 4 mps 753 mmHg 51%
    18:00 +18°C° 0.1 mm 3 mps 753 mmHg 55%
    19:00 +17°C° 0.1 mm 3 mps 753 mmHg 60%
    20:00 +16°C° 0.1 mm 2 mps 753 mmHg 64%
    21:00 +16°C° 0 mm 2 mps 753 mmHg 66%
    22:00 +16°C° 0 mm 2 mps 754 mmHg 69%
    23:00 +16°C° 0 mm 2 mps 754 mmHg 71%

    Day after tomorrow, 23 November, Thursday

    Time Temperature Precipitation Wind Pressure Humidity
    00:00 +15°C° 0 mm 2 mps 753 mmHg 73%
    01:00 +15°C° 0 mm 2 mps 753 mmHg 74%
    02:00 +15°C° 0 mm 2 mps 753 mmHg 75%
    03:00 +15°C° 0 mm 2 mps 753 mmHg 76%
    04:00 +15°C° 0 mm 2 mps 753 mmHg 76%
    05:00 +15°C° 0 mm 2 mps 753 mmHg 77%
    06:00 +15°C° 0 mm 2 mps 753 mmHg 76%
    07:00 +15°C° 0 mm 1 mps 753 mmHg 75%
    08:00 +15°C° 0 mm 1 mps 753 mmHg 74%
    09:00 +18°C° 0 mm 1 mps 753 mmHg 65%
    10:00 +19°C° 0 mm 1 mps 754 mmHg 55%
    11:00 +20°C° 0 mm 1 mps 754 mmHg 45%
    12:00 +21°C° 0 mm 1 mps 754 mmHg 43%
    13:00 +21°C° 0 mm 1 mps 753 mmHg 42%
    14:00 +21°C° 0 mm 2 mps 753 mmHg 40%
    15:00 +20°C° 0 mm 2 mps 753 mmHg 44%
    16:00 +19°C° 0 mm 2 mps 753 mmHg 48%
    17:00 +19°C° 0 mm 2 mps 753 mmHg 52%
    18:00 +19°C° 0 mm 1 mps 754 mmHg 54%
    19:00 +18°C° 0 mm 1 mps 754 mmHg 56%
    20:00 +18°C° 0 mm 1 mps 754 mmHg 58%
    21:00 +16°C° 0 mm 1 mps 754 mmHg 58%
    22:00 +16°C° 0 mm 1 mps 754 mmHg 59%
    23:00 +16°C° 0 mm 1 mps 755 mmHg 59%

    24 November, Friday

    Time Temperature Precipitation Wind Pressure Humidity
    00:00 +16°C° 0 mm 1 mps 754 mmHg 57%
    01:00 +16°C° 0 mm 1 mps 754 mmHg 55%
    02:00 +15°C° 0 mm 1 mps 754 mmHg 53%
    03:00 +15°C° 0 mm 1 mps 754 mmHg 53%
    04:00 +15°C° 0 mm 1 mps 754 mmHg 52%
    05:00 +15°C° 0 mm 1 mps 753 mmHg 51%
    06:00 +15°C° 0 mm 1 mps 754 mmHg 51%
    07:00 +15°C° 0 mm 1 mps 754 mmHg 51%
    08:00 +16°C° 0 mm 1 mps 754 mmHg 51%
    09:00 +18°C° 0 mm 1 mps 754 mmHg 45%
    10:00 +20°C° 0 mm 1 mps 754 mmHg 40%
    11:00 +21°C° 0 mm 1 mps 754 mmHg 34%
    12:00 +21°C° 0 mm 1 mps 754 mmHg 34%
    13:00 +22°C° 0 mm 1 mps 754 mmHg 34%
    14:00 +21°C° 0 mm 2 mps 753 mmHg 34%
    15:00 +20°C° 0 mm 2 mps 753 mmHg 39%
    16:00 +20°C° 0 mm 2 mps 753 mmHg 43%
    17:00 +19°C° 0 mm 2 mps 753 mmHg 48%
    18:00 +18°C° 0 mm 2 mps 754 mmHg 50%
    19:00 +17°C° 0 mm 2 mps 754 mmHg 52%
    20:00 +17°C° 0 mm 2 mps 754 mmHg 54%
    21:00 +17°C° 0 mm 2 mps 754 mmHg 56%
    22:00 +16°C° 0 mm 2 mps 754 mmHg 57%
    23:00 +16°C° 0 mm 2 mps 755 mmHg 59%

    25 November, Saturday

    Time Temperature Precipitation Wind Pressure Humidity
    00:00 +16°C° 0 mm 2 mps 754 mmHg 58%
    01:00 +16°C° 0 mm 2 mps 754 mmHg 57%
    02:00 +15°C° 0 mm 2 mps 754 mmHg 56%
    03:00 +15°C° 0 mm 2 mps 754 mmHg 57%
    04:00 +14°C° 0 mm 3 mps 754 mmHg 57%
    05:00 +14°C° 0 mm 3 mps 754 mmHg 58%
    06:00 +14°C° 0 mm 3 mps 754 mmHg 59%
    07:00 +14°C° 0 mm 4 mps 754 mmHg 60%
    08:00 +15°C° 0 mm 4 mps 755 mmHg 62%
    09:00 +17°C° 0 mm 4 mps 755 mmHg 56%
    10:00 +18°C° 0 mm 4 mps 755 mmHg 51%
    11:00 +20°C° 0 mm 4 mps 755 mmHg 46%
    12:00 +20°C° 0 mm 4 mps 755 mmHg 45%
    13:00 +20°C° 0 mm 4 mps 755 mmHg 45%
    14:00 +21°C° 0 mm 4 mps 754 mmHg 45%
    15:00 +20°C° 0 mm 5 mps 754 mmHg 49%
    16:00 +19°C° 0 mm 5 mps 754 mmHg 54%
    17:00 +17°C° 0 mm 5 mps 755 mmHg 58%
    18:00 +16°C° 0 mm 5 mps 755 mmHg 61%
    19:00 +16°C° 0 mm 5 mps 755 mmHg 65%
    20:00 +15°C° 0 mm 5 mps 755 mmHg 68%
    21:00 +15°C° 0 mm 5 mps 755 mmHg 68%
    22:00 +14°C° 0 mm 5 mps 755 mmHg 69%
    23:00 +14°C° 0 mm 5 mps 755 mmHg 70%

    26 November, Sunday

    Time Temperature Precipitation Wind Pressure Humidity
    00:00 +14°C° 0 mm 5 mps 755 mmHg 72%
    01:00 +14°C° 0 mm 5 mps 755 mmHg 73%
    02:00 +14°C° 0 mm 5 mps 755 mmHg 75%
    03:00 +13°C° 0 mm 5 mps 755 mmHg 75%
    04:00 +13°C° 0 mm 5 mps 755 mmHg 76%
    05:00 +13°C° 0 mm 5 mps 755 mmHg 77%
    06:00 +13°C° 0 mm 5 mps 755 mmHg 76%
    07:00 +14°C° 0 mm 5 mps 756 mmHg 75%
    08:00 +14°C° 0 mm 5 mps 756 mmHg 74%
    09:00 +15°C° 0 mm 5 mps 756 mmHg 67%
    10:00 +17°C° 0 mm 4 mps 756 mmHg 60%
    11:00 +19°C° 0 mm 4 mps 756 mmHg 53%
    12:00 +19°C° 0 mm 4 mps 756 mmHg 51%
    13:00 +19°C° 0 mm 4 mps 756 mmHg 49%
    14:00 +20°C° 0 mm 4 mps 756 mmHg 47%
    15:00 +19°C° 0 mm 4 mps 756 mmHg 51%
    16:00 +18°C° 0 mm 4 mps 756 mmHg 54%
    17:00 +18°C° 0 mm 4 mps 756 mmHg 58%
    18:00 +17°C° 0 mm 3 mps 756 mmHg 62%
    19:00 +16°C° 0 mm 3 mps 756 mmHg 66%
    20:00 +14°C° 0 mm 3 mps 756 mmHg 70%
    21:00 +14°C° 0 mm 3 mps 756 mmHg 71%
    22:00 +15°C° 0 mm 2 mps 756 mmHg 72%
    23:00 +15°C° 0 mm 2 mps 756 mmHg 72%
    Show more